This is the latest recevied weather packets stored in our database for station/object OK1KZE-6. If no packets are shown the sender has not sent any weather packets the latest 10 day(s).
| Time | Temp. | Humidity | Pressure | Rain* | Wind** | Luminosity | Snow |
|---|---|---|---|---|---|---|---|
| 1777983008 | -17.78° C | 100% | 1009.6 hPa | - | - | - | - |
| 1777982708 | -17.78° C | 100% | 1009.7 hPa | - | - | - | - |
| 1777982407 | -1.11° C | 100% | 1009.8 hPa | - | - | - | - |
| 1777982107 | -1.11° C | 100% | 1009.7 hPa | - | - | - | - |
| 1777981807 | -1.11° C | 100% | 1009.8 hPa | - | - | - | - |
| 1777981507 | -1.11° C | 100% | 1009.7 hPa | - | - | - | - |
| 1777980909 | -1.11° C | 100% | 1010 hPa | - | - | - | - |
| 1777980608 | -1.11° C | 100% | 1009.9 hPa | - | - | - | - |
| 1777980309 | -1.11° C | 100% | 1010.1 hPa | - | - | - | - |
| 1777980008 | -1.11° C | 100% | 1010.1 hPa | - | - | - | - |
| 1777979707 | -1.11° C | 100% | 1010.1 hPa | - | - | - | - |
| 1777979408 | 20.56° C | 51% | 1010.2 hPa | - | - | - | - |
| 1777979108 | 20.56° C | 51% | 1010.3 hPa | - | - | - | - |
| 1777978808 | 21.11° C | 51% | 1010.2 hPa | - | - | - | - |
| 1777978507 | 21.11° C | 51% | 1010.4 hPa | - | - | - | - |
| 1777977908 | 20° C | 53% | 1010 hPa | - | - | - | - |
| 1777977607 | 20° C | 53% | 1010.3 hPa | - | - | - | - |
| 1777977308 | 20.56° C | 53% | 1010.3 hPa | - | - | - | - |
| 1777977008 | 20.56° C | 54% | 1010.2 hPa | - | - | - | - |
| 1777976707 | 20.56° C | 54% | 1010.4 hPa | - | - | - | - |
| 1777976108 | 20° C | 54% | 1010.5 hPa | - | - | - | - |
| 1777975807 | 20° C | 53% | 1010.4 hPa | - | - | - | - |
| 1777975508 | 20° C | 54% | 1010.3 hPa | - | - | - | - |
| 1777975208 | 20° C | 56% | 1010.3 hPa | - | - | - | - |
| 1777974608 | 20° C | 56% | 1010.5 hPa | - | - | - | - |
* Rain since midnight (hover to see other rain measurements)
** Current wind speed in m/s (hover to see current wind gust speed)